Location: Township of Marena
(38.1747°N, 99.6798°W)
Time: 05:15:45
(UTC+00:00)

CZ-2D R/B - Pass Details

Date: 26 October 2020
Orbit: 521 x 537 km, 97.4° (Epoch: 25 November)

Event Time Altitude Azimuth Distance (km) Brightness Sun altitude
Rises 00:22:47 0° 141° (SE) 2,654 6.5 -7.7°
Reaches altitude 10° 00:25:06 10° 129° (SE) 1,766 5.5 -8.2°
Maximum altitude 00:28:19 26° 71° (ENE) 1,050 4.2 -8.8°
Drops below altitude 10° 00:31:32 10° 14° (NNE) 1,770 5.7 -9.4°
Sets 00:33:52 0° 2° (N) 2,662 6.7 -9.9°
